Regional Weather Roundup
Issued by NWS

Home | Current Version | Previous Version | Text Only | Print | Product List | Glossary Off
Versions: 1 2 3 4 5 6 7 8 9 10 11 12 13 14 15 16 17 18 19 20 21 22 23 24 25 26 27 28 29 30 31 32 33 34 35 36 37 38 39 40 41 42 43 44 45 46 47 48 49 50

000
ASUS45 KCYS 250210
RWRWY

WYOMING REGIONAL WEATHER ROUNDUP
NATIONAL WEATHER SERVICE CHEYENNE WY
800 PM MDT FRI APR 24 2015

NOTE:  "FAIR" INDICATES FEW OR NO CLOUDS BELOW 12,000 FEET
WITH NO SIGNIFICANT WEATHER AND/OR OBSTRUCTIONS TO VISIBILITY.

WYZ001-250300-
YELLOWSTONE NATIONAL PARK

CITY           SKY/WX    TMP DP  RH WIND       PRES   REMARKS
LK YELLOWSTONE   N/A     33  31  92 CALM      29.75F
W YELLOWSTONE  NOT AVBL

$$
WYZ002>013-054>058-071-098>099-250300-
NORTHERN WYOMING

CITY           SKY/WX    TMP DP  RH WIND       PRES   REMARKS
JACKSON        MOCLDY    39  39 100 CALM      29.73S
CODY           CLOUDY    57  34  41 W10       29.58R
GREYBULL         N/A     66  20  17 CALM      29.50S
WORLAND        MOCLDY    58  40  51 CALM      29.52R
SHERIDAN       FAIR      56  39  53 CALM      29.61R
BUFFALO        LGT RAIN  51  41  68 E9        29.65R
GILLETTE       MOCLDY    57  40  52 NE8       29.62R
HULETT         FAIR      55  34  44 E5        29.64R
NEWCASTLE      FAIR      54  37  54 MISG      29.61R

$$
WYZ014>020-022>026-101>103-250300-
CENTRAL WYOMING

CITY           SKY/WX    TMP DP  RH WIND       PRES   REMARKS
BIG PINEY      TSTM      42  33  70 VRB5G20   29.73R
PINEDALE       RAIN      41  36  81 W16G24    29.75R
DUBOIS         FAIR      39  32  75 NW10      29.70S WCI  32
LANDER         MOCLDY    54  29  38 W18G24    29.59F
RIVERTON       FAIR      54  31  41 SW13      29.61R
CASPER         FAIR      52  35  52 SW21G30   29.62R
DOUGLAS        MOCLDY    53  40  61 SE3       29.65R

$$
WYZ021-027>030-104>119-250300-
SOUTHERN WYOMING

CITY           SKY/WX    TMP DP  RH WIND       PRES   REMARKS
EVANSTON       MOCLDY    40  37  89 SW7       29.76F
KEMMERER       LGT RAIN  37  36  93 SW18G30   29.77R WCI  27
FORT BRIDGER   MOCLDY    43  39  87 W12G18    29.78F
ROCK SPRINGS   FAIR      42  34  73 NW9       29.74S
DIXON          FAIR      45  38  76 E5        29.78R
RAWLINS        FAIR      45  33  63 SW10      29.74R
SARATOGA       CLOUDY    45  34  65 S9        29.78R
LARAMIE        CLOUDY    41  34  76 W25G33    29.74R
CHEYENNE       FAIR      51  32  48 W10       29.67R
TORRINGTON     MOCLDY    54  46  74 N12       29.60R
PINE BLUFFS    FAIR      46  37  71 W3        29.65R

$$



USA.gov is the U.S. government's official web portal to all federal, state and local government web resources and services.